SCP
0 0 0 0 0 0 0 0 0 0 0 0 0 0 0 0 0 0 0 0 0 0 0 0 0 0 0 0 0 0 -0 0 0 -0 0 0 0 0 0 0 0 0 0 0 0 0 0 0 0 0 0 -0 -0 -0
0 0 0 0 0 0 0 0 0 0 0 0 0 0 0 0 0 0 0 0 0 0 0 0 -0 -0 0 0 0 0 0 -0 0 -0 0 0 0 0 0 0 0 0 0 0 0 0 0 0 0 0 0 0 0 -0
0 0 0 0 0 0 0 0 0 0 0 0 0 0 0 0 0 0 0 0 0 0 0 0 0 0 0 0 0 0 0 0 0 0 0 0 0 0 0 0 0 0 0 0 0 0 0 0 0 0 0 0 0 0
0 0 0 0 0 0 0 0 0 0 0 0 0 0 0 0 0 0 0 0 0 0 0 0 0 0 0 0 0 -0 0 0 0 0 0 0 0 0 0 0 0 0 0 0 0 0 0 0 0 0 0 0 0 0
0 0 0 0 0 0 0 0 0 0 0 0 0 0 0 0 0 0 0 0 0 0 0 0 0 0 0 0 0 0 -0 0 -0 0 0 0 0 -0 0 0 0 0 0 0 0 0 0 0 0 0 0 0 0 0
0 0 0 0 0 0 0 0 0 0 0 0 0 0 0 0 0 0 0 0 0 0 0 0 0 0 0 0 0 0 0 0 0 -0 0 0 -0 0 -0 0 0 0 0 0 0 0 0 0 0 0 0 0 0 0
0 0 0 0 0 0 0 0 0 0 0 0 0 0 0 0 0 0 0 0 0 0 0 0 0 0 0 0 0 0 0 0 0 -0 -0 0 -0 0 0 0 0 0 0 0 0 0 0 0 0 0 0 0 0 0
0 0 0 0 0 0 0 0 0 0 0 0 0 0 0 0 0 0 0 0 0 0 0 0 0 0 0 0 0 0 0 0 -0 -0 -0 -0 0 0 0 -0 -0 -0 0 -0 0 0 0 0 0 0 0 0 -0 0
0 0 0 0 0 0 0 0 0 0 0 0 0 0 0 0 0 0 0 0 0 0 0 0 0 0 0 0 0 0 0 -0 0 -0 -0 -0 0 0 0 -0 -0 -0 0 0 0 0 0 0 0 0 0 0 0 0
0 0 0 0 0 0 0 0 0 0 0 0 0 0 0 0 0 0 0 0 0 0 0 0 0 0 0 0 0 0 0 -0 -0 -0 -0 -0 0 0 0 0 0 0 0 0 0 -0 0 0 0 0 0 0 0 0
0 0 0 0 0 0 0 -0 0 0 0 0 0 0 0 0 0 0 0 0 0 0 0 0 0 0 0 0 0 0 0 0 -0 -0 -0 0 0 0 0 0 0 0 0 0 0 0 0 0 0 0 -0 -0 0 0
0 0 0 0 0 0 0 0 0 0 0 0 0 0 0 0 0 0 0 0 0 0 0 0 0 0 0 0 0 0 0 -0 -0 -0 -0 0 0 0 0 0 0 0 0 0 0 -0 0 0 0 0 0 0 0 0
0 0 0 0 0 0 0 0 0 0 0 0 0 0 0 0 0 0 0 0 0 0 0 0 0 0 0 0 0 0 0 -0 -0 -0 -0 0 0 0 0 0 0 0 0 0 -0 -0 -0 -0 0 0 0 0 0 0
0 0 0 0 0 0 0 0 0 0 0 0 0 0 0 0 0 0 0 0 0 0 0 0 0 0 0 0 0 0 0 0 0 -0 -0 0 0 0 0 0 0 0 0 0 0 0 0 0 0 0 0 0 0 0
0 0 0 -0 0 0 0 0 0 0 0 0 0 0 0 0 0 0 0 0 0 0 0 0 0 0 0 0 0 0 0 -0 0 0 0 0 0 0 0 0 0 0 0 0 0 0 0 0 0 0 0 0 0 0
-0 -0 0 0 0 -0 0 0 0 0 0 0 0 0 0 0 0 0 0 0 0 0 0 0 0 0 0 0 0 0 0 0 -0 0 -0 0 0 0 0 0 0 0 0 0 0 0 0 0 0 0 0 0 0 0
-0 -0 0 0 -0 -0 0 0 0 0 0 0 0 0 0 0 0 0 0 0 0 0 0 0 0 0 0 0 0 0 0 0 -0 0 0 0 0 0 0 0 0 0 0 0 0 0 0 0 0 0 0 0 0 0
0 0 -0 0 0 0 0 0 0 0 0 0 0 0 0 0 0 0 0 0 0 0 0 0 0 0 0 0 0 0 0 0 -0 0 0 0 0 0 0 0 0 0 0 0 0 0 0 0 0 0 0 0 0 0
0 0 0 0 0 0 0 0 0 0 0 0 0 0 0 0 0 0 0 0 0 0 0 0 -0 -0 -0 0 0 0 0 0 0 0 0 0 0 0 0 0 0 0 0 0 0 0 0 0 0 0 0 -0 0 0
0 -0 -0 0 0 0 0 0 0 0 0 0 0 0 0 0 0 0 0 0 0 0 0 0 0 0 0 0 0 0 0 0 0 0 -0 -0 0 -0 -0 0 0 0 0 0 0 0 0 0 0 0 0 0 0 0
0 0 0 0 0 0 0 0 0 0 0 0 0 0 0 0 0 0 0 0 0 0 -0 0 0 0 0 0 0 0 0 0 0 0 0 -0 -0 -0 -0 0 0 0 0 0 0 0 0 0 0 0 0 0 0 0
0 0 0 0 0 0 0 0 0 0 0 0 0 0 0 -0 0 0 0 -0 -0 -0 0 0 0 0 0 0 0 0 0 0 0 0 0 0 0 0 0 0 0 -0 0 0 0 0 0 0 0 0 0 0 0 0
0 0 0 0 0 0 0 0 0 0 0 0 0 0 0 0 -0 0 -0 -0 -0 0 0 0 0 0 0 0 0 0 0 0 0 0 0 0 0 0 0 0 0 0 0 0 0 0 0 0 0 0 0 0 0 0
0 0 0 0 0 0 0 0 0 0 0 0 0 -0 0 0 0 -0 -0 0 -0 -0 0 0 0 0 0 0 0 0 0 0 0 0 0 0 0 0 0 0 0 0 -0 0 0 0 0 0 0 0 0 0 0 0
0 0 0 0 0 0 0 0 0 0 0 -0 -0 -0 0 0 0 -0 -0 0 0 0 0 0 0 0 0 0 0 0 0 0 0 0 0 0 0 -0 0 0 0 0 0 0 0 0 0 0 0 0 0 0 0 0
0 0 0 0 0 0 0 0 -0 -0 -0 -0 -0 -0 0 0 0 0 0 0 0 0 0 0 0 0 0 0 0 0 0 0 0 0 0 0 -0 0 -0 0 0 0 0 0 0 0 0 0 0 0 0 0 0 0
0 0 0 0 0 -0 -0 0 -0 -0 -0 -0 0 0 0 0 -0 0 0 0 0 0 0 0 0 0 0 0 0 0 0 0 0 0 0 0 0 0 0 0 0 0 0 0 0 0 0 0 0 0 0 0 0 0
0 0 0 -0 0 0 -0 -0 -0 -0 -0 0 0 0 0 0 0 0 0 0 0 0 0 0 0 0 0 0 0 0 0 0 0 0 0 -0 0 -0 -0 -0 0 0 0 0 0 0 0 0 0 0 0 0 0 0
0 0 0 -0 0 0 0 0 0 0 0 0 0 0 0 0 0 0 0 0 0 0 0 0 0 0 0 0 0 0 0 0 0 0 0 0 0 0 0 0 0 0 0 0 -0 0 0 0 0 0 0 0 0 0
-0 0 0 0 0 0 0 0 0 0 0 0 0 0 0 0 0 0 0 0 0 0 0 0 0 0 0 0 0 0 0 0 0 0 0 0 0 0 0 0 0 0 0 0 0 0 0 0 0 0 0 0 0 0
-0 -0 0 -0 0 0 0 0 0 0 0 0 0 0 0 0 0 0 0 0 0 0 0 0 0 0 0 0 0 0 0 0 0 0 0 0 0 0 0 0 0 0 0 0 0 0 0 0 0 0 0 0 0 0
-0 -0 -0 -0 0 0 0 0 0 0 0 0 0 0 0 0 0 0 0 0 0 0 0 0 0 0 0 0 0 0 0 0 0 0 0 0 0 0 0 0 0 0 0 0 0 0 0 0 0 0 0 0 0 0
0 0 0 0 0 0 0 0 0 0 0 0 0 0 0 0 0 0 0 0 0 0 0 0 0 0 0 0 0 0 0 0 0 0 0 0 0 0 0 0 0 0 0 0 0 0 0 0 0 0 0 0 0 0
Wind_Speed_500mb
59 59 61 62 62 58 54 59 55 57 61 51 55 56 40 35 22 14 13 15 10 13 38 27 19 26 24 23 7 20 18 6 7 9 6 8 7 10 8 20 10 10 15 9 10 9 12 59 36 15 20 61 63 58
56 58 60 60 60 57 56 62 66 57 65 58 53 50 38 35 22 18 10 15 16 26 30 44 49 48 49 42 39 9 10 10 7 5 5 7 5 8 18 9 10 7 6 9 7 8 31 51 42 50 44 46 45 52
54 56 57 57 58 58 62 61 59 58 66 57 50 44 36 32 23 18 15 16 22 22 36 18 10 15 17 23 26 15 11 7 7 7 7 5 8 3 8 8 9 8 7 6 12 5 30 33 55 54 49 49 55 56
55 54 55 55 57 54 55 57 57 57 58 48 45 40 32 29 23 17 19 12 19 13 10 9 16 22 16 24 29 32 35 30 26 32 10 4 6 5 5 7 5 7 19 16 9 16 45 41 60 57 54 53 59 68
56 56 55 55 54 54 52 50 49 53 52 56 48 34 28 25 21 16 23 26 26 14 11 27 32 5 9 14 23 25 31 29 14 6 6 4 7 8 6 7 4 15 9 8 7 36 24 26 59 56 59 57 60 71
58 59 57 55 52 52 55 54 51 48 45 51 45 29 24 24 17 8 6 9 17 24 10 8 17 12 11 17 20 24 19 21 14 8 8 4 6 9 6 5 3 36 38 29 10 25 35 28 52 58 58 62 70 74
62 60 59 57 53 53 56 52 51 48 42 46 41 25 26 22 20 12 6 11 15 12 8 12 12 9 14 13 10 14 18 10 12 5 5 2 4 5 3 5 23 34 27 28 26 9 24 46 39 59 63 74 83 88
64 65 60 59 56 53 54 51 50 43 48 44 32 23 21 19 20 21 20 22 20 13 10 6 9 11 6 10 5 4 8 8 9 6 5 2 4 4 2 10 19 24 15 21 24 27 30 40 52 62 60 77 87 84
65 65 64 61 60 56 54 49 48 43 51 43 34 20 16 15 15 8 16 20 24 13 8 9 6 5 4 12 5 3 4 5 2 3 2 3 2 2 9 17 12 17 12 13 20 25 31 37 42 46 53 63 73 69
66 65 64 62 62 58 55 50 49 53 54 41 29 17 11 14 18 24 15 10 20 14 15 12 20 10 10 6 4 4 5 2 4 3 3 4 1 7 14 5 6 8 6 8 12 19 21 29 36 43 49 50 57 58
67 67 63 62 63 54 47 50 58 65 52 40 20 14 14 25 20 13 12 13 17 11 17 17 30 17 8 8 4 3 3 2 5 6 3 3 2 5 4 8 8 8 11 15 16 18 25 27 29 35 41 43 46 49
71 69 65 62 62 48 44 55 73 79 61 44 22 26 28 15 14 12 10 10 12 10 18 19 19 18 8 8 8 9 5 5 4 8 4 3 5 8 13 15 13 14 12 17 20 26 23 26 28 31 35 39 42 42
69 67 66 62 57 50 49 82 81 78 55 43 21 18 17 17 14 14 18 10 9 12 20 24 13 11 13 13 10 7 9 5 4 3 2 4 15 15 17 17 18 18 18 17 22 24 26 28 28 30 33 33 35 39
68 68 67 65 58 58 58 97 91 71 51 17 18 14 15 13 14 13 14 13 18 15 24 15 12 11 11 9 7 7 5 7 4 8 5 8 14 18 13 16 8 13 14 19 24 27 27 26 28 29 28 28 30 35
68 68 63 65 68 60 86 92 86 74 24 17 16 13 18 14 12 18 19 10 17 17 15 11 8 8 10 8 6 5 7 5 2 3 6 18 13 18 13 13 13 13 16 18 21 23 25 25 26 27 25 24 27 29
60 69 73 55 46 86 83 71 72 37 10 11 12 8 9 13 17 22 25 21 20 17 10 8 6 7 10 6 7 9 4 3 6 8 29 18 14 17 18 15 16 16 20 22 22 24 23 23 23 24 25 24 25 26
58 32 35 72 76 73 73 64 37 17 15 8 11 22 15 10 20 24 28 25 22 20 9 5 8 7 3 6 6 3 2 10 20 31 27 22 21 19 18 20 21 21 20 23 26 26 24 23 23 22 23 23 23 23
51 49 60 59 73 69 52 25 13 14 15 20 9 14 26 10 18 22 21 21 22 17 9 4 4 8 5 4 4 8 18 23 33 28 15 21 19 17 19 19 21 22 23 24 24 23 23 23 22 22 25 25 25 23
44 55 68 69 63 35 12 16 9 9 16 6 16 8 18 20 17 16 24 23 20 10 7 7 8 7 6 2 8 13 17 27 37 39 28 20 21 21 19 20 20 23 25 25 25 22 21 21 20 25 26 26 24 23
42 72 67 56 33 10 10 11 14 6 6 10 12 16 13 20 25 25 23 23 23 12 10 7 6 2 4 13 13 12 13 27 37 37 32 36 23 14 20 24 22 23 23 22 21 24 24 22 22 23 24 23 24 25
61 57 58 35 12 8 5 7 6 9 6 9 15 18 16 19 26 30 27 26 17 14 13 12 8 3 11 14 18 11 10 18 28 32 37 38 35 28 26 22 25 23 21 20 20 22 24 21 23 24 24 23 23 24
47 58 44 9 7 2 2 8 3 4 6 5 16 18 15 24 24 23 22 21 21 22 15 9 10 13 22 21 18 12 13 16 15 18 23 28 34 32 34 34 29 27 23 21 21 21 21 20 22 23 24 24 25 24
46 37 12 3 2 3 2 5 6 9 7 14 16 10 9 12 18 19 12 24 21 17 17 14 13 15 21 21 18 16 14 15 17 16 20 16 15 17 21 23 36 33 28 25 21 21 21 24 27 25 25 25 25 24
31 12 8 8 6 2 4 9 8 7 7 6 9 9 16 16 21 15 8 13 21 25 22 16 18 23 22 22 18 15 14 16 15 17 20 24 22 18 15 14 16 22 29 31 31 24 23 27 28 29 27 26 27 26
4 5 7 5 7 6 8 10 8 6 7 15 9 6 11 16 11 11 9 13 21 22 25 27 27 24 25 24 23 19 15 17 18 20 21 19 16 14 13 11 9 16 24 27 33 43 33 28 31 32 31 30 30 30
4 7 9 7 5 6 7 9 13 12 9 11 10 4 7 7 8 5 6 13 21 25 31 40 34 30 26 26 26 18 16 16 18 19 18 16 15 12 10 10 12 11 20 24 23 32 43 47 35 36 38 40 37 34
2 4 6 7 6 6 6 6 8 10 11 9 7 7 4 5 6 4 6 12 22 31 33 32 30 28 29 26 25 22 19 18 14 13 13 13 16 11 8 6 7 10 17 19 19 25 30 32 32 30 34 43 52 57
3 2 6 13 8 12 5 6 8 8 4 4 12 6 9 5 1 6 8 18 33 33 30 29 26 25 25 28 29 23 23 18 16 15 19 17 15 11 13 11 11 18 20 20 20 18 18 19 19 19 20 19 20 22
6 6 7 10 7 9 7 4 1 2 2 4 3 6 7 5 4 12 28 45 42 33 35 35 32 30 29 30 33 27 19 17 16 17 14 17 16 11 11 11 17 15 16 19 19 16 16 15 14 14 14 15 16 19
10 12 6 8 5 4 3 1 4 5 5 4 7 7 7 7 27 36 41 34 33 36 34 31 28 24 28 29 29 27 19 14 12 14 14 16 16 15 15 13 11 11 10 11 13 14 16 12 12 21 22 18 18 21
9 12 6 7 4 1 3 7 8 11 7 7 11 20 10 18 35 26 27 33 30 32 31 28 21 20 21 20 22 22 21 17 15 14 14 14 12 12 12 13 14 13 9 12 13 12 12 13 15 17 19 20 21 20
14 11 5 6 5 5 7 5 11 11 8 8 17 18 8 15 11 22 35 31 32 30 27 22 21 22 20 19 18 14 12 19 15 11 9 7 4 1 7 8 9 11 13 21 21 18 18 19 17 16 17 20 21 21
10 10 7 5 6 6 4 6 7 8 9 5 11 26 12 8 10 14 29 25 25 26 27 27 28 27 25 23 21 20 18 14 9 8 6 2 0 2 2 2 2 3 4 6 10 12 15 18 20 20 24 28 30 31
Wind_Direction_500mb
296 294 292 288 284 285 288 288 286 290 301 298 305 303 311 316 306 287 274 270 242 261 286 263 267 266 276 269 277 327 329 25 308 342 335 342 301 331 286 319 345 326 330 341 311 312 341 342 328 339 296 298 293 292
298 298 296 294 288 285 285 282 282 280 281 290 298 295 301 307 294 271 268 272 272 262 266 283 271 260 250 258 279 292 268 296 295 308 5 301 302 307 319 317 9 360 354 309 317 308 290 311 307 314 323 320 327 326
301 301 300 297 294 283 276 281 286 282 292 282 285 284 295 298 287 261 246 254 287 286 304 267 270 267 268 263 240 228 257 246 251 332 310 278 283 328 317 344 307 327 39 268 296 279 316 346 349 359 3 1 13 40
306 304 303 301 302 294 286 281 277 286 290 281 276 270 282 282 275 262 252 247 253 275 283 283 291 285 267 262 254 276 270 271 273 290 238 271 275 10 309 296 302 328 306 307 267 302 316 351 357 7 18 31 42 56
307 305 304 300 300 302 303 299 280 282 285 266 256 259 271 263 266 261 264 262 238 233 297 298 310 295 232 250 269 276 261 264 279 256 224 252 281 315 277 241 37 330 309 338 321 324 339 324 2 18 31 42 53 63
311 306 303 302 296 299 297 297 288 277 273 260 251 254 247 252 253 253 282 252 216 225 282 298 310 280 246 258 256 252 250 250 236 251 236 215 283 316 307 335 298 335 334 351 305 340 20 0 21 30 40 52 62 68
308 308 304 300 294 290 292 288 287 285 264 252 247 237 239 246 235 204 235 198 186 198 264 286 285 252 276 271 254 219 211 243 240 252 264 109 299 332 314 319 314 336 358 24 34 5 23 36 29 44 52 65 70 72
301 305 302 300 297 288 289 292 289 275 260 239 228 222 238 242 248 254 228 195 190 205 246 272 279 270 214 292 300 232 243 209 244 300 184 276 293 280 260 307 342 350 347 41 54 58 74 70 64 56 57 67 69 69
295 299 299 296 292 289 288 293 286 265 236 221 207 207 227 221 222 217 180 193 211 218 271 235 264 294 279 277 296 250 243 256 266 216 308 259 272 340 315 344 360 5 34 65 68 66 81 63 65 61 68 74 79 78
292 295 294 292 292 290 288 285 277 246 215 189 165 172 214 219 166 157 159 178 205 223 227 250 241 260 286 311 292 263 189 264 233 165 188 266 186 102 357 32 46 42 46 69 83 74 78 69 66 65 67 72 80 85
291 292 290 288 287 286 288 283 253 208 176 169 173 184 191 164 145 191 206 206 195 222 214 232 226 254 218 271 282 197 320 298 259 132 247 254 136 34 17 116 95 86 89 81 101 110 109 90 78 77 77 77 80 85
288 288 288 285 279 278 277 246 220 200 195 175 158 158 154 186 204 208 197 198 222 236 189 209 209 211 239 210 228 173 242 176 263 139 213 248 90 28 138 130 117 96 103 99 99 102 103 96 92 86 82 82 85 89
288 284 284 278 273 266 266 225 221 205 177 152 175 179 185 177 212 211 192 196 215 213 189 185 188 209 184 217 241 216 225 193 235 186 202 59 118 100 129 125 111 90 96 102 110 113 111 104 98 93 90 86 86 90
285 284 279 272 271 253 268 215 202 176 159 171 179 196 204 187 220 198 203 195 208 187 166 182 211 207 203 213 231 243 134 122 241 187 167 133 137 119 131 138 131 112 122 113 119 120 119 114 106 102 98 98 100 99
285 283 276 271 272 261 204 188 186 163 174 202 205 213 202 214 204 197 195 192 183 177 173 182 220 233 200 241 229 265 214 171 277 82 145 145 120 141 131 183 158 134 139 132 130 129 128 124 120 112 108 107 105 107
281 289 277 264 206 183 178 169 162 178 202 220 229 225 188 194 199 183 187 194 177 180 180 210 213 216 219 227 224 218 248 131 126 146 140 157 154 170 181 184 170 154 145 143 143 140 135 129 126 121 118 118 117 118
294 266 182 176 174 160 154 159 164 187 211 219 228 216 206 220 202 184 181 188 179 201 211 183 218 204 229 228 220 182 45 107 122 151 150 174 177 171 150 143 145 145 139 140 141 140 138 133 127 125 123 123 121 123
227 179 181 158 143 150 149 155 154 180 226 225 223 210 202 210 193 181 181 179 183 211 202 237 284 224 235 253 142 119 113 126 142 155 158 165 188 160 155 145 147 148 147 147 148 147 143 140 138 141 139 135 128 124
181 171 156 149 146 130 131 175 180 221 221 202 219 212 200 212 207 189 189 189 198 200 215 203 244 234 226 78 111 123 128 149 151 155 162 158 170 192 182 163 152 149 152 155 156 154 158 154 155 153 151 144 141 136
162 146 149 146 134 154 137 147 184 229 220 204 203 196 195 195 192 191 190 185 191 197 207 225 230 224 217 137 97 112 129 152 156 156 172 184 177 170 176 171 165 159 152 156 160 161 161 159 158 159 160 157 155 153
143 153 158 145 100 79 89 128 179 223 218 204 179 183 188 180 183 186 187 191 192 208 221 216 178 123 121 128 133 102 135 156 173 176 176 178 184 184 197 197 189 171 165 164 166 171 168 172 171 170 171 165 165 166
154 165 164 132 61 32 241 201 259 180 213 138 164 190 185 192 190 188 184 197 214 216 215 189 176 166 149 146 155 154 186 173 153 148 155 176 181 186 196 200 192 187 184 181 179 178 174 178 178 176 176 178 171 173
145 145 133 125 233 210 245 192 218 187 205 172 172 187 190 197 190 171 214 222 223 214 214 214 200 175 159 151 150 152 158 173 180 162 152 153 149 160 171 186 195 191 189 185 179 174 182 184 180 174 177 179 178 185
143 163 186 186 203 227 193 205 196 199 171 180 192 200 171 183 170 203 221 200 205 201 199 194 171 150 146 149 160 150 150 158 155 150 153 152 144 145 151 165 178 192 202 205 206 204 185 185 185 179 182 182 185 188
143 171 170 175 197 225 208 171 179 194 185 208 217 180 161 169 187 201 211 190 183 183 179 167 157 163 161 154 143 134 131 154 153 155 155 158 152 161 162 159 188 202 201 209 200 200 212 195 195 192 193 193 193 192
197 168 199 178 158 224 201 172 189 195 192 198 216 144 153 176 180 181 192 195 188 177 166 159 156 154 147 146 148 144 131 119 138 140 154 162 161 165 168 188 192 201 199 197 194 197 208 210 215 204 210 209 208 205
232 167 167 207 253 236 233 218 200 191 196 212 162 138 150 182 220 193 199 175 170 161 154 156 154 153 150 145 137 136 132 135 122 123 153 169 160 149 138 112 120 145 170 168 177 187 191 199 208 224 238 230 222 225
311 262 199 178 207 235 247 199 198 200 188 161 144 143 172 212 163 147 157 152 149 146 148 153 152 149 153 157 149 148 142 138 127 116 118 135 161 173 169 151 130 127 132 143 151 163 168 173 182 191 195 200 207 213
236 205 221 192 212 214 231 256 242 120 34 203 174 135 162 214 232 148 149 145 146 145 132 125 123 138 148 153 150 149 155 159 170 159 148 140 141 138 167 185 183 165 171 174 180 178 181 182 205 208 208 213 216 215
186 189 239 201 235 183 107 330 37 68 45 57 100 97 137 122 141 131 137 146 139 137 132 131 132 136 145 149 147 145 148 150 157 156 159 160 148 137 139 140 157 167 174 186 188 195 195 217 224 219 229 246 246 250
180 196 237 229 268 179 126 112 106 98 72 34 124 133 91 100 134 119 128 137 137 132 127 125 127 131 142 149 149 138 126 138 138 145 127 134 144 157 169 182 194 186 184 200 202 212 224 232 238 240 238 244 251 262
185 203 215 221 185 165 152 99 79 74 68 35 81 131 84 93 89 126 131 133 133 128 125 121 125 129 132 134 132 144 146 147 137 129 126 127 133 136 174 189 210 233 233 221 224 238 241 242 240 235 237 244 257 256
193 194 225 229 177 171 99 108 96 88 4 1 96 115 97 98 87 119 137 131 138 139 134 128 126 127 125 121 120 115 114 114 115 131 135 144 280 312 19 12 268 242 244 254 253 254 259 266 265 259 258 257 256 256
Wind_Speed_850mb
59 59 61 62 62 58 54 59 55 57 61 51 55 56 40 35 22 14 13 15 10 13 38 27 19 26 24 23 7 20 18 6 7 9 6 8 7 10 8 20 10 10 15 9 10 9 12 59 36 15 20 61 63 58
56 58 60 60 60 57 56 62 66 57 65 58 53 50 38 35 22 18 10 15 16 26 30 44 49 48 49 42 39 9 10 10 7 5 5 7 5 8 18 9 10 7 6 9 7 8 31 51 42 50 44 46 45 52
54 56 57 57 58 58 62 61 59 58 66 57 50 44 36 32 23 18 15 16 22 22 36 18 10 15 17 23 26 15 11 7 7 7 7 5 8 3 8 8 9 8 7 6 12 5 30 33 55 54 49 49 55 56
55 54 55 55 57 54 55 57 57 57 58 48 45 40 32 29 23 17 19 12 19 13 10 9 16 22 16 24 29 32 35 30 26 32 10 4 6 5 5 7 5 7 19 16 9 16 45 41 60 57 54 53 59 68
56 56 55 55 54 54 52 50 49 53 52 56 48 34 28 25 21 16 23 26 26 14 11 27 32 5 9 14 23 25 31 29 14 6 6 4 7 8 6 7 4 15 9 8 7 36 24 26 59 56 59 57 60 71
58 59 57 55 52 52 55 54 51 48 45 51 45 29 24 24 17 8 6 9 17 24 10 8 17 12 11 17 20 24 19 21 14 8 8 4 6 9 6 5 3 36 38 29 10 25 35 28 52 58 58 62 70 74
62 60 59 57 53 53 56 52 51 48 42 46 41 25 26 22 20 12 6 11 15 12 8 12 12 9 14 13 10 14 18 10 12 5 5 2 4 5 3 5 23 34 27 28 26 9 24 46 39 59 63 74 83 88
64 65 60 59 56 53 54 51 50 43 48 44 32 23 21 19 20 21 20 22 20 13 10 6 9 11 6 10 5 4 8 8 9 6 5 2 4 4 2 10 19 24 15 21 24 27 30 40 52 62 60 77 87 84
65 65 64 61 60 56 54 49 48 43 51 43 34 20 16 15 15 8 16 20 24 13 8 9 6 5 4 12 5 3 4 5 2 3 2 3 2 2 9 17 12 17 12 13 20 25 31 37 42 46 53 63 73 69
66 65 64 62 62 58 55 50 49 53 54 41 29 17 11 14 18 24 15 10 20 14 15 12 20 10 10 6 4 4 5 2 4 3 3 4 1 7 14 5 6 8 6 8 12 19 21 29 36 43 49 50 57 58
67 67 63 62 63 54 47 50 58 65 52 40 20 14 14 25 20 13 12 13 17 11 17 17 30 17 8 8 4 3 3 2 5 6 3 3 2 5 4 8 8 8 11 15 16 18 25 27 29 35 41 43 46 49
71 69 65 62 62 48 44 55 73 79 61 44 22 26 28 15 14 12 10 10 12 10 18 19 19 18 8 8 8 9 5 5 4 8 4 3 5 8 13 15 13 14 12 17 20 26 23 26 28 31 35 39 42 42
69 67 66 62 57 50 49 82 81 78 55 43 21 18 17 17 14 14 18 10 9 12 20 24 13 11 13 13 10 7 9 5 4 3 2 4 15 15 17 17 18 18 18 17 22 24 26 28 28 30 33 33 35 39
68 68 67 65 58 58 58 97 91 71 51 17 18 14 15 13 14 13 14 13 18 15 24 15 12 11 11 9 7 7 5 7 4 8 5 8 14 18 13 16 8 13 14 19 24 27 27 26 28 29 28 28 30 35
68 68 63 65 68 60 86 92 86 74 24 17 16 13 18 14 12 18 19 10 17 17 15 11 8 8 10 8 6 5 7 5 2 3 6 18 13 18 13 13 13 13 16 18 21 23 25 25 26 27 25 24 27 29
60 69 73 55 46 86 83 71 72 37 10 11 12 8 9 13 17 22 25 21 20 17 10 8 6 7 10 6 7 9 4 3 6 8 29 18 14 17 18 15 16 16 20 22 22 24 23 23 23 24 25 24 25 26
58 32 35 72 76 73 73 64 37 17 15 8 11 22 15 10 20 24 28 25 22 20 9 5 8 7 3 6 6 3 2 10 20 31 27 22 21 19 18 20 21 21 20 23 26 26 24 23 23 22 23 23 23 23
51 49 60 59 73 69 52 25 13 14 15 20 9 14 26 10 18 22 21 21 22 17 9 4 4 8 5 4 4 8 18 23 33 28 15 21 19 17 19 19 21 22 23 24 24 23 23 23 22 22 25 25 25 23
44 55 68 69 63 35 12 16 9 9 16 6 16 8 18 20 17 16 24 23 20 10 7 7 8 7 6 2 8 13 17 27 37 39 28 20 21 21 19 20 20 23 25 25 25 22 21 21 20 25 26 26 24 23
42 72 67 56 33 10 10 11 14 6 6 10 12 16 13 20 25 25 23 23 23 12 10 7 6 2 4 13 13 12 13 27 37 37 32 36 23 14 20 24 22 23 23 22 21 24 24 22 22 23 24 23 24 25
61 57 58 35 12 8 5 7 6 9 6 9 15 18 16 19 26 30 27 26 17 14 13 12 8 3 11 14 18 11 10 18 28 32 37 38 35 28 26 22 25 23 21 20 20 22 24 21 23 24 24 23 23 24
47 58 44 9 7 2 2 8 3 4 6 5 16 18 15 24 24 23 22 21 21 22 15 9 10 13 22 21 18 12 13 16 15 18 23 28 34 32 34 34 29 27 23 21 21 21 21 20 22 23 24 24 25 24
46 37 12 3 2 3 2 5 6 9 7 14 16 10 9 12 18 19 12 24 21 17 17 14 13 15 21 21 18 16 14 15 17 16 20 16 15 17 21 23 36 33 28 25 21 21 21 24 27 25 25 25 25 24
31 12 8 8 6 2 4 9 8 7 7 6 9 9 16 16 21 15 8 13 21 25 22 16 18 23 22 22 18 15 14 16 15 17 20 24 22 18 15 14 16 22 29 31 31 24 23 27 28 29 27 26 27 26
4 5 7 5 7 6 8 10 8 6 7 15 9 6 11 16 11 11 9 13 21 22 25 27 27 24 25 24 23 19 15 17 18 20 21 19 16 14 13 11 9 16 24 27 33 43 33 28 31 32 31 30 30 30
4 7 9 7 5 6 7 9 13 12 9 11 10 4 7 7 8 5 6 13 21 25 31 40 34 30 26 26 26 18 16 16 18 19 18 16 15 12 10 10 12 11 20 24 23 32 43 47 35 36 38 40 37 34
2 4 6 7 6 6 6 6 8 10 11 9 7 7 4 5 6 4 6 12 22 31 33 32 30 28 29 26 25 22 19 18 14 13 13 13 16 11 8 6 7 10 17 19 19 25 30 32 32 30 34 43 52 57
3 2 6 13 8 12 5 6 8 8 4 4 12 6 9 5 1 6 8 18 33 33 30 29 26 25 25 28 29 23 23 18 16 15 19 17 15 11 13 11 11 18 20 20 20 18 18 19 19 19 20 19 20 22
6 6 7 10 7 9 7 4 1 2 2 4 3 6 7 5 4 12 28 45 42 33 35 35 32 30 29 30 33 27 19 17 16 17 14 17 16 11 11 11 17 15 16 19 19 16 16 15 14 14 14 15 16 19
10 12 6 8 5 4 3 1 4 5 5 4 7 7 7 7 27 36 41 34 33 36 34 31 28 24 28 29 29 27 19 14 12 14 14 16 16 15 15 13 11 11 10 11 13 14 16 12 12 21 22 18 18 21
9 12 6 7 4 1 3 7 8 11 7 7 11 20 10 18 35 26 27 33 30 32 31 28 21 20 21 20 22 22 21 17 15 14 14 14 12 12 12 13 14 13 9 12 13 12 12 13 15 17 19 20 21 20
14 11 5 6 5 5 7 5 11 11 8 8 17 18 8 15 11 22 35 31 32 30 27 22 21 22 20 19 18 14 12 19 15 11 9 7 4 1 7 8 9 11 13 21 21 18 18 19 17 16 17 20 21 21
10 10 7 5 6 6 4 6 7 8 9 5 11 26 12 8 10 14 29 25 25 26 27 27 28 27 25 23 21 20 18 14 9 8 6 2 0 2 2 2 2 3 4 6 10 12 15 18 20 20 24 28 30 31
Wind_Direction_850mb
296 294 292 288 284 285 288 288 286 290 301 298 305 303 311 316 306 287 274 270 242 261 286 263 267 266 276 269 277 327 329 25 308 342 335 342 301 331 286 319 345 326 330 341 311 312 341 342 328 339 296 298 293 292
298 298 296 294 288 285 285 282 282 280 281 290 298 295 301 307 294 271 268 272 272 262 266 283 271 260 250 258 279 292 268 296 295 308 5 301 302 307 319 317 9 360 354 309 317 308 290 311 307 314 323 320 327 326
301 301 300 297 294 283 276 281 286 282 292 282 285 284 295 298 287 261 246 254 287 286 304 267 270 267 268 263 240 228 257 246 251 332 310 278 283 328 317 344 307 327 39 268 296 279 316 346 349 359 3 1 13 40
306 304 303 301 302 294 286 281 277 286 290 281 276 270 282 282 275 262 252 247 253 275 283 283 291 285 267 262 254 276 270 271 273 290 238 271 275 10 309 296 302 328 306 307 267 302 316 351 357 7 18 31 42 56
307 305 304 300 300 302 303 299 280 282 285 266 256 259 271 263 266 261 264 262 238 233 297 298 310 295 232 250 269 276 261 264 279 256 224 252 281 315 277 241 37 330 309 338 321 324 339 324 2 18 31 42 53 63
311 306 303 302 296 299 297 297 288 277 273 260 251 254 247 252 253 253 282 252 216 225 282 298 310 280 246 258 256 252 250 250 236 251 236 215 283 316 307 335 298 335 334 351 305 340 20 0 21 30 40 52 62 68
308 308 304 300 294 290 292 288 287 285 264 252 247 237 239 246 235 204 235 198 186 198 264 286 285 252 276 271 254 219 211 243 240 252 264 109 299 332 314 319 314 336 358 24 34 5 23 36 29 44 52 65 70 72
301 305 302 300 297 288 289 292 289 275 260 239 228 222 238 242 248 254 228 195 190 205 246 272 279 270 214 292 300 232 243 209 244 300 184 276 293 280 260 307 342 350 347 41 54 58 74 70 64 56 57 67 69 69
295 299 299 296 292 289 288 293 286 265 236 221 207 207 227 221 222 217 180 193 211 218 271 235 264 294 279 277 296 250 243 256 266 216 308 259 272 340 315 344 360 5 34 65 68 66 81 63 65 61 68 74 79 78
292 295 294 292 292 290 288 285 277 246 215 189 165 172 214 219 166 157 159 178 205 223 227 250 241 260 286 311 292 263 189 264 233 165 188 266 186 102 357 32 46 42 46 69 83 74 78 69 66 65 67 72 80 85
291 292 290 288 287 286 288 283 253 208 176 169 173 184 191 164 145 191 206 206 195 222 214 232 226 254 218 271 282 197 320 298 259 132 247 254 136 34 17 116 95 86 89 81 101 110 109 90 78 77 77 77 80 85
288 288 288 285 279 278 277 246 220 200 195 175 158 158 154 186 204 208 197 198 222 236 189 209 209 211 239 210 228 173 242 176 263 139 213 248 90 28 138 130 117 96 103 99 99 102 103 96 92 86 82 82 85 89
288 284 284 278 273 266 266 225 221 205 177 152 175 179 185 177 212 211 192 196 215 213 189 185 188 209 184 217 241 216 225 193 235 186 202 59 118 100 129 125 111 90 96 102 110 113 111 104 98 93 90 86 86 90
285 284 279 272 271 253 268 215 202 176 159 171 179 196 204 187 220 198 203 195 208 187 166 182 211 207 203 213 231 243 134 122 241 187 167 133 137 119 131 138 131 112 122 113 119 120 119 114 106 102 98 98 100 99
285 283 276 271 272 261 204 188 186 163 174 202 205 213 202 214 204 197 195 192 183 177 173 182 220 233 200 241 229 265 214 171 277 82 145 145 120 141 131 183 158 134 139 132 130 129 128 124 120 112 108 107 105 107
281 289 277 264 206 183 178 169 162 178 202 220 229 225 188 194 199 183 187 194 177 180 180 210 213 216 219 227 224 218 248 131 126 146 140 157 154 170 181 184 170 154 145 143 143 140 135 129 126 121 118 118 117 118
294 266 182 176 174 160 154 159 164 187 211 219 228 216 206 220 202 184 181 188 179 201 211 183 218 204 229 228 220 182 45 107 122 151 150 174 177 171 150 143 145 145 139 140 141 140 138 133 127 125 123 123 121 123
227 179 181 158 143 150 149 155 154 180 226 225 223 210 202 210 193 181 181 179 183 211 202 237 284 224 235 253 142 119 113 126 142 155 158 165 188 160 155 145 147 148 147 147 148 147 143 140 138 141 139 135 128 124
181 171 156 149 146 130 131 175 180 221 221 202 219 212 200 212 207 189 189 189 198 200 215 203 244 234 226 78 111 123 128 149 151 155 162 158 170 192 182 163 152 149 152 155 156 154 158 154 155 153 151 144 141 136
162 146 149 146 134 154 137 147 184 229 220 204 203 196 195 195 192 191 190 185 191 197 207 225 230 224 217 137 97 112 129 152 156 156 172 184 177 170 176 171 165 159 152 156 160 161 161 159 158 159 160 157 155 153
143 153 158 145 100 79 89 128 179 223 218 204 179 183 188 180 183 186 187 191 192 208 221 216 178 123 121 128 133 102 135 156 173 176 176 178 184 184 197 197 189 171 165 164 166 171 168 172 171 170 171 165 165 166
154 165 164 132 61 32 241 201 259 180 213 138 164 190 185 192 190 188 184 197 214 216 215 189 176 166 149 146 155 154 186 173 153 148 155 176 181 186 196 200 192 187 184 181 179 178 174 178 178 176 176 178 171 173
145 145 133 125 233 210 245 192 218 187 205 172 172 187 190 197 190 171 214 222 223 214 214 214 200 175 159 151 150 152 158 173 180 162 152 153 149 160 171 186 195 191 189 185 179 174 182 184 180 174 177 179 178 185
143 163 186 186 203 227 193 205 196 199 171 180 192 200 171 183 170 203 221 200 205 201 199 194 171 150 146 149 160 150 150 158 155 150 153 152 144 145 151 165 178 192 202 205 206 204 185 185 185 179 182 182 185 188
143 171 170 175 197 225 208 171 179 194 185 208 217 180 161 169 187 201 211 190 183 183 179 167 157 163 161 154 143 134 131 154 153 155 155 158 152 161 162 159 188 202 201 209 200 200 212 195 195 192 193 193 193 192
197 168 199 178 158 224 201 172 189 195 192 198 216 144 153 176 180 181 192 195 188 177 166 159 156 154 147 146 148 144 131 119 138 140 154 162 161 165 168 188 192 201 199 197 194 197 208 210 215 204 210 209 208 205
232 167 167 207 253 236 233 218 200 191 196 212 162 138 150 182 220 193 199 175 170 161 154 156 154 153 150 145 137 136 132 135 122 123 153 169 160 149 138 112 120 145 170 168 177 187 191 199 208 224 238 230 222 225
311 262 199 178 207 235 247 199 198 200 188 161 144 143 172 212 163 147 157 152 149 146 148 153 152 149 153 157 149 148 142 138 127 116 118 135 161 173 169 151 130 127 132 143 151 163 168 173 182 191 195 200 207 213
236 205 221 192 212 214 231 256 242 120 34 203 174 135 162 214 232 148 149 145 146 145 132 125 123 138 148 153 150 149 155 159 170 159 148 140 141 138 167 185 183 165 171 174 180 178 181 182 205 208 208 213 216 215
186 189 239 201 235 183 107 330 37 68 45 57 100 97 137 122 141 131 137 146 139 137 132 131 132 136 145 149 147 145 148 150 157 156 159 160 148 137 139 140 157 167 174 186 188 195 195 217 224 219 229 246 246 250
180 196 237 229 268 179 126 112 106 98 72 34 124 133 91 100 134 119 128 137 137 132 127 125 127 131 142 149 149 138 126 138 138 145 127 134 144 157 169 182 194 186 184 200 202 212 224 232 238 240 238 244 251 262
185 203 215 221 185 165 152 99 79 74 68 35 81 131 84 93 89 126 131 133 133 128 125 121 125 129 132 134 132 144 146 147 137 129 126 127 133 136 174 189 210 233 233 221 224 238 241 242 240 235 237 244 257 256
193 194 225 229 177 171 99 108 96 88 4 1 96 115 97 98 87 119 137 131 138 139 134 128 126 127 125 121 120 115 114 114 115 131 135 144 280 312 19 12 268 242 244 254 253 254 259 266 265 259 258 257 256 256